FW4804 Weather Reports


time (UTC)temp
C
wind
direction
speed
KPH
gust
KPH
rain 1hr
cm
rain 24hr
cm
rain mn
cm
humidity
%
barometer
mb
20260906080005 25 248 1.6 4.8 0.00 0.00 0.00 44 1018.9
20260906075505 25 270 0.0 3.2 0.00 0.00 0.00 44 1018.8
20260906075005 24 245 0.0 3.2 0.00 0.00 0.00 44 1018.8
20260906074505 23 254 1.6 3.2 0.00 0.00 0.00 46 1018.9
20260906074005 23 266 1.6 3.2 0.00 0.00 0.00 45 1019.0
20260906073505 23 0 0.0 0.0 0.00 0.00 0.00 44 1018.9
20260906073005 22 279 0.0 3.2 0.00 0.00 0.00 48 1018.8
20260906072505 22 279 0.0 3.2 0.00 0.00 0.00 51 1019.0
20260906072005 21 0 0.0 0.0 0.00 0.00 0.00 54 1019.0
20260906071505 21 0 0.0 0.0 0.00 0.00 0.00 54 1019.0
20260906071005 21 0 0.0 0.0 0.00 0.00 0.00 55 1019.1
20260906070505 21 0 0.0 0.0 0.00 0.00 0.00 54 1019.0
20260906065505 19 0 0.0 0.0 0.00 0.00 0.00 56 1019.0
20260906065006 19 0 0.0 0.0 0.00 0.00 0.00 55 1019.1
20260906064505 18 0 0.0 0.0 0.00 0.00 0.00 60 1019.0
20260906064005 18 0 0.0 0.0 0.00 0.00 0.00 59 1018.9
20260906063505 17 0 0.0 0.0 0.00 0.00 0.00 62 1018.9
20260906063005 17 0 0.0 0.0 0.00 0.00 0.00 66 1018.9
20260906062005 16 0 0.0 0.0 0.00 0.00 0.00 70 1019.0
20260906061505 16 0 0.0 0.0 0.00 0.00 0.00 72 1018.8
20260906061005 15 0 0.0 0.0 0.00 0.00 0.00 73 1018.9
20260906060505 15 0 0.0 0.0 0.00 0.00 0.00 75 1019.1
20260906060005 14 0 0.0 0.0 0.00 0.00 0.00 76 1019.2
20260906055505 13 0 0.0 0.0 0.00 0.00 0.00 79 1019.0
20260906055005 12 0 0.0 0.0 0.00 0.00 0.00 82 1019.0
20260906054505 12 0 0.0 0.0 0.00 0.00 0.00 83 1019.0
20260906054005 12 0 0.0 0.0 0.00 0.00 0.00 86 1019.0
20260906053505 11 0 0.0 0.0 0.00 0.00 0.00 87 1019.1
20260906052505 11 0 0.0 0.0 0.00 0.00 0.00 88 1019.4
20260906051505 11 0 0.0 0.0 0.00 0.00 0.00 88 1019.2
20260906051005 10 0 0.0 0.0 0.00 0.00 0.00 88 1019.3
20260906050505 10 0 0.0 0.0 0.00 0.00 0.00 89 1019.0
20260906050005 10 0 0.0 0.0 0.00 0.00 0.00 90 1019.1
20260906045505 10 0 0.0 0.0 0.00 0.00 0.00 90 1019.2
20260906045005 10 0 0.0 0.0 0.00 0.00 0.00 90 1019.2
20260906044505 10 0 0.0 0.0 0.00 0.00 0.00 90 1019.1
20260906044005 10 0 0.0 0.0 0.00 0.00 0.00 89 1019.0
20260906043505 9 0 0.0 0.0 0.00 0.00 0.00 89 1019.1
20260906042505 10 0 0.0 0.0 0.00 0.00 0.00 89 1018.9
20260906042005 10 0 0.0 0.0 0.00 0.00 0.00 89 1019.1
20260906041505 10 0 0.0 0.0 0.00 0.00 0.00 89 1018.8
20260906041005 9 0 0.0 0.0 0.00 0.00 0.00 89 1018.9
20260906040505 9 0 0.0 0.0 0.00 0.00 0.00 89 1018.9
20260906040005 9 0 0.0 0.0 0.00 0.00 0.00 89 1019.0
20260906035505 10 0 0.0 0.0 0.00 0.00 0.00 89 1018.8
20260906035006 10 0 0.0 0.0 0.00 0.00 0.00 90 1019.0
20260906034505 10 0 0.0 0.0 0.00 0.00 0.00 89 1018.8
20260906034005 9 0 0.0 0.0 0.00 0.00 0.00 88 1018.8
20260906033505 9 0 0.0 0.0 0.00 0.00 0.00 88 1018.9
20260906033005 9 0 0.0 0.0 0.00 0.00 0.00 88 1018.8
20260906032505 10 0 0.0 0.0 0.00 0.00 0.00 88 1018.9
20260906032005 10 0 0.0 0.0 0.00 0.00 0.00 88 1018.9
20260906031005 10 0 0.0 0.0 0.00 0.00 0.00 87 1018.8
20260906030005 10 0 0.0 0.0 0.00 0.00 0.00 86 1018.7
20260906025005 10 0 0.0 0.0 0.00 0.00 0.00 86 1018.6
20260906024505 10 0 0.0 0.0 0.00 0.00 0.00 85 1019.0
20260906024005 10 0 0.0 0.0 0.00 0.00 0.00 85 1018.9
20260906023505 10 0 0.0 0.0 0.00 0.00 0.00 86 1018.6
20260906023006 10 0 0.0 0.0 0.00 0.00 0.00 87 1018.7
20260906022505 10 0 0.0 0.0 0.00 0.00 0.00 87 1018.6
20260906022005 10 0 0.0 0.0 0.00 0.00 0.00 88 1018.5
20260906021505 10 0 0.0 0.0 0.00 0.00 0.00 86 1018.7
20260906021006 10 0 0.0 0.0 0.00 0.00 0.00 85 1018.7
20260906020505 10 0 0.0 0.0 0.00 0.00 0.00 86 1018.7
20260906015005 10 0 0.0 0.0 0.00 0.00 0.00 85 1018.9
20260906014505 10 0 0.0 0.0 0.00 0.00 0.00 85 1018.8
20260906014005 10 0 0.0 0.0 0.00 0.00 0.00 85 1018.9
20260906013506 10 0 0.0 0.0 0.00 0.00 0.00 85 1018.8
20260906013005 10 0 0.0 0.0 0.00 0.00 0.00 85 1018.9
20260906012505 10 0 0.0 0.0 0.00 0.00 0.00 84 1019.0
20260906012005 10 0 0.0 0.0 0.00 0.00 0.00 84 1018.8
20260906010005 10 0 0.0 0.0 0.00 0.00 0.00 84 1018.9
20260906005506 10 0 0.0 0.0 0.00 0.00 0.00 83 1018.9
20260906005005 11 0 0.0 0.0 0.00 0.00 0.00 84 1018.8
20260906004005 11 0 0.0 0.0 0.00 0.00 0.00 83 1019.0
20260906003506 11 0 0.0 0.0 0.00 0.00 0.00 83 1019.0
20260906003006 11 0 0.0 0.0 0.00 0.00 0.00 83 1019.1
20260906002505 11 0 0.0 0.0 0.00 0.00 0.00 82 1018.9
20260906002005 11 0 0.0 0.0 0.00 0.00 0.00 82 1019.1
20260906001505 11 0 0.0 0.0 0.00 0.00 0.00 82 1019.2
20260906001005 11 0 0.0 0.0 0.00 0.00 0.00 82 1019.2
20260906000505 11 0 0.0 0.0 0.00 0.00 0.00 81 1019.2
20260906000006 11 0 0.0 0.0 0.00 0.00 0.00 81 1019.3
20260905235505 11 0 0.0 0.0 0.00 0.00 0.00 80 1019.2
20260905234506 11 0 0.0 0.0 0.00 0.00 0.00 80 1019.4
20260905234006 11 0 0.0 0.0 0.00 0.00 0.00 81 1019.3
20260905233505 11 0 0.0 0.0 0.00 0.00 0.00 80 1019.5
20260905233005 11 0 0.0 0.0 0.00 0.00 0.00 79 1019.5
20260905232505 11 0 0.0 0.0 0.00 0.00 0.00 79 1019.5
20260905232005 12 0 0.0 0.0 0.00 0.00 0.00 79 1019.4
20260905231505 12 0 0.0 0.0 0.00 0.00 0.00 78 1019.5
20260905231005 12 0 0.0 0.0 0.00 0.00 0.00 78 1019.4
20260905230505 12 0 0.0 0.0 0.00 0.00 0.00 77 1019.6
20260905230006 12 0 0.0 0.0 0.00 0.00 0.00 75 1019.8
20260905225505 12 0 0.0 0.0 0.00 0.00 0.00 75 1019.8
20260905225005 12 0 0.0 0.0 0.00 0.00 0.00 75 1019.8
20260905224505 12 0 0.0 0.0 0.00 0.00 0.00 74 1019.7
20260905223505 12 0 0.0 0.0 0.00 0.00 0.00 74 1019.8
20260905223005 12 0 0.0 0.0 0.00 0.00 0.00 74 1019.8
20260905222505 12 0 0.0 0.0 0.00 0.00 0.00 73 1019.8
20260905222005 13 0 0.0 0.0 0.00 0.00 0.00 73 1019.9
20260905221505 13 0 0.0 0.0 0.00 0.00 0.00 72 1019.7
20260905221005 13 0 0.0 0.0 0.00 0.00 0.00 72 1019.6
20260905220505 13 0 0.0 0.0 0.00 0.00 0.00 72 1019.6
20260905220006 13 0 0.0 0.0 0.00 0.00 0.00 72 1019.6
20260905215505 13 0 0.0 0.0 0.00 0.00 0.00 72 1019.8
20260905215005 13 0 0.0 0.0 0.00 0.00 0.00 73 1019.7
20260905214505 13 0 0.0 0.0 0.00 0.00 0.00 72 1019.7
20260905213505 13 0 0.0 0.0 0.00 0.00 0.00 72 1020.0
20260905213005 13 0 0.0 0.0 0.00 0.00 0.00 72 1019.8
20260905212505 13 0 0.0 0.0 0.00 0.00 0.00 71 1019.9
20260905212005 13 0 0.0 0.0 0.00 0.00 0.00 71 1019.8
20260905211005 14 0 0.0 0.0 0.00 0.00 0.00 71 1019.6
20260905210010 14 0 0.0 0.0 0.00 0.00 0.00 70 1019.8
20260905205505 14 0 0.0 0.0 0.00 0.00 0.00 69 1019.7
20260905204505 15 0 0.0 0.0 0.00 0.00 0.00 69 1019.9
20260905204005 15 0 0.0 0.0 0.00 0.00 0.00 69 1019.8
20260905203505 15 0 0.0 0.0 0.00 0.00 0.00 68 1019.9
20260905203005 15 0 0.0 0.0 0.00 0.00 0.00 67 1019.8
20260905202505 15 0 0.0 0.0 0.00 0.00 0.00 66 1019.9
20260905202005 15 0 0.0 0.0 0.00 0.00 0.00 65 1019.8
20260905201505 15 0 0.0 0.0 0.00 0.00 0.00 65 1019.9
20260905201005 15 0 0.0 0.0 0.00 0.00 0.00 65 1019.9
20260905200505 15 0 0.0 0.0 0.00 0.00 0.00 65 1020.0
20260905195506 16 0 0.0 0.0 0.00 0.00 0.00 65 1020.0
20260905195005 16 0 0.0 0.0 0.00 0.00 0.00 65 1020.0
20260905194505 16 0 0.0 0.0 0.00 0.00 0.00 64 1019.9
20260905194005 16 0 0.0 0.0 0.00 0.00 0.00 65 1020.1
20260905193505 16 0 0.0 0.0 0.00 0.00 0.00 64 1020.1
20260905193006 16 0 0.0 0.0 0.00 0.00 0.00 63 1020.1
20260905192505 17 0 0.0 0.0 0.00 0.00 0.00 62 1019.9
20260905192005 17 0 0.0 0.0 0.00 0.00 0.00 62 1019.8
20260905191505 17 0 0.0 0.0 0.00 0.00 0.00 62 1019.7
20260905191005 17 0 0.0 0.0 0.00 0.00 0.00 57 1019.9
20260905190506 17 0 0.0 0.0 0.00 0.00 0.00 57 1019.8
20260905185505 17 0 0.0 0.0 0.00 0.00 0.00 62 1019.7
20260905185005 17 0 0.0 0.0 0.00 0.00 0.00 61 1019.9
20260905184505 17 0 0.0 0.0 0.00 0.00 0.00 56 1019.7
20260905182505 18 0 0.0 0.0 0.00 0.00 0.00 55 1019.4
20260905182005 18 0 0.0 0.0 0.00 0.00 0.00 54 1019.3
20260905181505 18 0 0.0 0.0 0.00 0.00 0.00 53 1019.2
20260905181006 18 0 0.0 0.0 0.00 0.00 0.00 52 1019.0
20260905180505 19 0 0.0 0.0 0.00 0.00 0.00 52 1019.1
20260905180005 19 0 0.0 0.0 0.00 0.00 0.00 51 1019.1
20260905175505 19 0 0.0 0.0 0.00 0.00 0.00 51 1018.9
20260905175005 19 0 0.0 0.0 0.00 0.00 0.00 50 1018.8
20260905174505 20 0 0.0 0.0 0.00 0.00 0.00 49 1018.7
20260905174005 20 0 0.0 0.0 0.00 0.00 0.00 48 1018.6
20260905173006 21 0 0.0 0.0 0.00 0.00 0.00 47 1018.4
20260905172505 21 0 0.0 0.0 0.00 0.00 0.00 46 1018.5
20260905172005 21 0 0.0 0.0 0.00 0.00 0.00 46 1018.3
20260905171506 21 0 0.0 0.0 0.00 0.00 0.00 45 1018.2
20260905171005 22 0 0.0 0.0 0.00 0.00 0.00 45 1018.2
20260905170505 22 0 0.0 0.0 0.00 0.00 0.00 44 1018.2
20260905170005 22 0 0.0 0.0 0.00 0.00 0.00 42 1018.2
20260905165505 23 0 0.0 0.0 0.00 0.00 0.00 42 1018.1
20260905165005 23 0 0.0 0.0 0.00 0.00 0.00 38 1018.0
20260905164505 23 0 0.0 0.0 0.00 0.00 0.00 39 1017.9
20260905163505 25 0 0.0 0.0 0.00 0.00 0.00 36 1017.8
20260905162505 26 0 0.0 0.0 0.00 0.00 0.00 33 1017.7
20260905162005 26 135 0.0 3.2 0.00 0.00 0.00 32 1017.7
20260905161505 27 171 1.6 4.8 0.00 0.00 0.00 32 1017.8
20260905161005 28 188 1.6 4.8 0.00 0.00 0.00 26 1017.7
20260905160505 28 147 1.6 6.4 0.00 0.00 0.00 26 1017.8
20260905160006 28 173 3.2 8.0 0.00 0.00 0.00 25 1017.9
20260905155505 29 193 3.2 8.0 0.00 0.00 0.00 24 1017.6
20260905155005 29 350 1.6 8.0 0.00 0.00 0.00 24 1017.9
20260905154005 30 116 6.4 11.3 0.00 0.00 0.00 24 1017.6
20260905153505 30 133 6.4 6.4 0.00 0.00 0.00 25 1017.7
20260905152005 31 117 6.4 11.3 0.00 0.00 0.00 24 1017.6
20260905151505 31 116 6.4 11.3 0.00 0.00 0.00 23 1017.5
20260905151005 31 163 4.8 11.3 0.00 0.00 0.00 23 1017.4
20260905150006 31 121 6.4 9.7 0.00 0.00 0.00 23 1017.5
20260905145005 31 21 4.8 6.4 0.00 0.00 0.00 24 1017.3
20260905144005 31 125 6.4 9.7 0.00 0.00 0.00 23 1017.3
20260905143505 31 134 4.8 8.0 0.00 0.00 0.00 24 1017.4
20260905142505 31 346 6.4 16.1 0.00 0.00 0.00 23 1017.4
20260905142006 31 339 8.0 16.1 0.00 0.00 0.00 24 1017.4
20260905141505 31 329 6.4 11.3 0.00 0.00 0.00 24 1017.2
20260905141005 31 294 4.8 6.4 0.00 0.00 0.00 24 1017.3
20260905140505 31 219 3.2 6.4 0.00 0.00 0.00 24 1017.3
20260905140005 31 252 3.2 6.4 0.00 0.00 0.00 24 1017.3
20260905135505 32 94 4.8 8.0 0.00 0.00 0.00 23 1017.2
20260905135005 31 98 6.4 12.9 0.00 0.00 0.00 25 1017.4
20260905134005 31 124 8.0 12.9 0.00 0.00 0.00 25 1017.4
20260905133505 31 137 8.0 12.9 0.00 0.00 0.00 25 1017.4
20260905132005 31 129 4.8 12.9 0.00 0.00 0.00 25 1017.5
20260905125506 31 90 3.2 11.3 0.00 0.00 0.00 25 1017.7
20260905124005 31 331 8.0 11.3 0.00 0.00 0.00 25 1017.9
20260905123505 31 353 4.8 11.3 0.00 0.00 0.00 26 1017.8
20260905123005 30 193 4.8 6.4 0.00 0.00 0.00 27 1018.0
20260905122505 30 30 4.8 9.7 0.00 0.00 0.00 25 1017.8
20260905122005 30 36 6.4 9.7 0.00 0.00 0.00 24 1017.9
20260905121505 30 325 6.4 9.7 0.00 0.00 0.00 25 1017.9
20260905121005 30 308 6.4 8.0 0.00 0.00 0.00 25 1018.0
20260905120505 30 223 4.8 6.4 0.00 0.00 0.00 25 1018.2
20260905120007 30 161 4.8 6.4 0.00 0.00 0.00 27 1018.2
20260905115505 30 345 4.8 6.4 0.00 0.00 0.00 27 1018.1
20260905115006 30 305 4.8 12.9 0.00 0.00 0.00 27 1018.4
20260905114506 30 316 3.2 12.9 0.00 0.00 0.00 26 1018.3
20260905114006 30 98 3.2 6.4 0.00 0.00 0.00 25 1018.2
20260905113505 30 121 4.8 9.7 0.00 0.00 0.00 25 1018.3
20260905113005 30 122 4.8 11.3 0.00 0.00 0.00 26 1018.4
20260905111506 30 116 6.4 11.3 0.00 0.00 0.00 27 1018.4
20260905111006 30 226 6.4 12.9 0.00 0.00 0.00 27 1018.2
20260905110505 30 203 9.7 12.9 0.00 0.00 0.00 26 1018.4
20260905105505 30 163 6.4 11.3 0.00 0.00 0.00 28 1018.2
20260905105005 30 242 6.4 12.9 0.00 0.00 0.00 28 1018.2
20260905104505 30 277 6.4 12.9 0.00 0.00 0.00 28 1018.2
20260905104005 30 337 4.8 9.7 0.00 0.00 0.00 27 1018.2
20260905103005 29 59 8.0 12.9 0.00 0.00 0.00 27 1018.1
20260905102006 29 117 9.7 12.9 0.00 0.00 0.00 28 1018.2
20260905101505 29 149 8.0 12.9 0.00 0.00 0.00 27 1018.4
20260905101005 29 317 4.8 11.3 0.00 0.00 0.00 28 1018.3
20260905100505 29 328 4.8 9.7 0.00 0.00 0.00 29 1018.3
20260905100006 29 66 6.4 11.3 0.00 0.00 0.00 28 1018.5
20260905095006 29 351 4.8 12.9 0.00 0.00 0.00 28 1018.3
20260905094005 28 136 11.3 14.5 0.00 0.00 0.00 27 1018.4
20260905093006 29 28 6.4 12.9 0.00 0.00 0.00 29 1018.5
20260905092505 28 236 6.4 12.9 0.00 0.00 0.00 29 1018.4
20260905091505 28 46 3.2 12.9 0.00 0.00 0.00 30 1018.5
20260905091005 28 338 6.4 12.9 0.00 0.00 0.00 30 1018.4
20260905090505 28 282 8.0 12.9 0.00 0.00 0.00 29 1018.6
20260905085505 28 146 6.4 11.3 0.00 0.00 0.00 30 1018.6
20260905084505 28 147 9.7 17.7 0.00 0.00 0.00 29 1018.5
20260905084005 28 9 8.0 12.9 0.00 0.00 0.00 30 1018.5
20260905083505 28 355 6.4 12.9 0.00 0.00 0.00 31 1018.5
20260905083005 27 312 6.4 11.3 0.00 0.00 0.00 30 1018.4
20260905082505 27 286 4.8 11.3 0.00 0.00 0.00 32 1018.5
20260905081505 27 7 4.8 12.9 0.00 0.00 0.00 32 1018.8